Regional Weather Roundup
Issued by NWS Kansas City/Pleasant Hill, MO

Home | Current Version | Previous Version | Text Only | Print | Product List | Glossary On
Versions: 1 2 3 4 5 6 7 8 9 10 11 12 13 14 15 16 17 18 19 20 21 22 23 24 25 26 27 28 29 30 31 32 33 34 35 36 37 38 39 40 41 42 43 44 45 46 47 48 49 50
000
ASUS43 KEAX 261810
RWREAX

WEATHER ROUNDUP FOR EASTERN KANSAS AND NORTHWEST MISSOURI
NATIONAL WEATHER SERVICE KANSAS CITY/PLEASANT HILL MO
100 PM CDT MON SEP 26 2016

KSZ040-057-103>105-MOZ028-029-037-043-261900-
...KANSAS CITY METROPOLITAN AREA...

CITY           SKY/WX    TMP DP  RH WIND       PRES   REMARKS
K.C. INTL      SUNNY     70  39  32 N10       30.24F
6HR MIN TEMP:  49; 6HR MAX TEMP:  71;

K.C. DOWNTOWN  SUNNY     72  35  25 N8        30.24F
6HR MIN TEMP:  53; 6HR MAX TEMP:  72;

LEES SUMMIT    SUNNY     70  38  31 NW12      30.25F
6HR MIN TEMP:  51; 6HR MAX TEMP:  71;

OLATHE - IXD   SUNNY     70  38  31 NW9G18    30.26F
6HR MIN TEMP:  48; 6HR MAX TEMP:  70;

OLATHE - OJC   SUNNY     69  36  29 N7        30.26F
6HR MIN TEMP:  50; 6HR MAX TEMP:  69;

LAWRENCE       SUNNY     71  44  37 W10       30.26F

$$

MOZ001>008-011>017-020>025-030>033-038>040-044>046-053-054-261900-
...NORTHERN AND CENTRAL MISSOURI...

CITY           SKY/WX    TMP DP  RH WIND       PRES   REMARKS
ST. JOSEPH     SUNNY     72  36  26 NW10      30.23F
6HR MIN TEMP:  47; 6HR MAX TEMP:  73;

MOSBY          CLEAR     70  34  26 NW12      30.23F
WHITEMAN AFB   MOSUNNY   71  38  29 NW10      30.22F
6HR MIN TEMP:  52; 6HR MAX TEMP:  71;

CLINTON        SUNNY     70  39  32 NW10      30.25F
SEDALIA        SUNNY     74  34  23 N15G21    30.23F
6HR MIN TEMP:  52; 6HR MAX TEMP:  74;

WARSAW         NOT AVBL
CHILLICOTHE      N/A     72  39  30 NW9       30.21F
6HR MIN TEMP:  47; 6HR MAX TEMP:  72;

KIRKSVILLE     SUNNY     70  38  31 NW13      30.18F
6HR MIN TEMP:  46; 6HR MAX TEMP:  70;


$$

MOZ041-047>049-056>058-063>065-088>090-097-261900-
...EASTERN AND SOUTHERN MISSOURI...

CITY           SKY/WX    TMP DP  RH WIND       PRES   REMARKS
ST. LOUIS INTL MOSUNNY   74  39  28 W10G20    30.16F
6HR MIN TEMP:  61; 6HR MAX TEMP:  74;

SPIRIT OF STL  MOSUNNY   72  42  34 W13G20    30.15F
COLUMBIA       SUNNY     71  37  28 NW12G24   30.20F
JEFFERSON CITY SUNNY     72  39  30 NW9       30.20F
ROLLA          SUNNY     69  43  38 NW13      30.20S
OSAGE BEACH    SUNNY     69  40  34 VRB6      30.23F
SPRINGFIELD    SUNNY     70  42  36 NW8       30.24F
BRANSON        MOSUNNY   68  45  42 NW12      30.24F
JOPLIN         SUNNY     70  44  39 N8        30.26F
WEST PLAINS    SUNNY     71  46  40 N10       30.22F

$$

IAZ060-094-KSZ022-034>040-054-083-096-NEZ052-066-093-261900-
...KANSAS...SOUTHEAST NEBRASKA AND IOWA...

CITY           SKY/WX    TMP DP  RH WIND       PRES   REMARKS
TOPEKA         SUNNY     71  41  33 W9        30.27F
6HR MIN TEMP:  48; 6HR MAX TEMP:  71;

MANHATTAN      SUNNY     72  40  31 W7        30.28F
EMPORIA        SUNNY     70  40  33 N10       30.29F
CHANUTE        SUNNY     72  41  32 N8        30.28F
WICHITA        MOSUNNY   72  40  31 N8        30.31F
OMAHA          MOSUNNY   73  40  30 W15       30.19F
LINCOLN        SUNNY     74  38  27 NW14      30.22F
FALLS CITY     SUNNY     71  43  36 NW14G20   30.22F
LAMONI         SUNNY     71  41  33 NW14G23   30.19F
DES MOINES     MOSUNNY   71  38  29 NW21G33   30.12F

$$




USA.gov is the U.S. government's official web portal to all federal, state and local government web resources and services.